When you browse on this site, cookies collect data to enhance your experience and personalize the content and advertising you see.
Visit our Privacy Policy to learn more. By continuing to use the site, you agree to this use of cookies and data.
  • In Schweiz
  • Länderverzeichnis
  • Für 7 Tage
  • Wassertemperatur
  • Wetterkarte
  • Widgets
  • user-avatar
    Anmelden

    Stündliche Wetter Shkoder

    Heute, 18 Oktober, Freitag

    Zeit Temperatur Niederschläge Wind Luftdruck Luftfeuchtigkeit
    00:00 +18°C° 0 mm 1 m/S 741 mmHg 70%
    01:00 +18°C° 0 mm 1 m/S 742 mmHg 72%
    02:00 +18°C° 0 mm 1 m/S 741 mmHg 73%
    03:00 +16°C° 0 mm 1 m/S 741 mmHg 74%
    04:00 +15°C° 0 mm 0 m/S 741 mmHg 75%
    05:00 +18°C° 0 mm 1 m/S 741 mmHg 73%
    06:00 +18°C° 0 mm 1 m/S 741 mmHg 72%
    07:00 +19°C° 0 mm 1 m/S 742 mmHg 70%
    08:00 +21°C° 0 mm 1 m/S 742 mmHg 64%
    09:00 +23°C° 0 mm 1 m/S 742 mmHg 58%
    10:00 +24°C° 0 mm 1 m/S 741 mmHg 52%
    11:00 +25°C° 0 mm 1 m/S 741 mmHg 51%
    12:00 +25°C° 0 mm 2 m/S 741 mmHg 50%
    13:00 +26°C° 0 mm 2 m/S 740 mmHg 48%
    14:00 +25°C° 0 mm 2 m/S 740 mmHg 53%
    15:00 +24°C° 0 mm 2 m/S 740 mmHg 58%
    16:00 +23°C° 0 mm 1 m/S 740 mmHg 63%
    17:00 +22°C° 0 mm 1 m/S 740 mmHg 69%
    18:00 +20°C° 0 mm 1 m/S 740 mmHg 75%
    19:00 +19°C° 0 mm 1 m/S 740 mmHg 81%
    20:00 +19°C° 0 mm 1 m/S 741 mmHg 81%
    21:00 +18°C° 0 mm 1 m/S 741 mmHg 80%
    22:00 +18°C° 0 mm 1 m/S 741 mmHg 80%
    23:00 +18°C° 0 mm 1 m/S 741 mmHg 80%

    Morgen, 19 Oktober, Samstag

    Zeit Temperatur Niederschläge Wind Luftdruck Luftfeuchtigkeit
    00:00 +18°C° 0 mm 1 m/S 741 mmHg 80%
    01:00 +16°C° 0 mm 1 m/S 741 mmHg 79%
    02:00 +16°C° 0 mm 1 m/S 741 mmHg 79%
    03:00 +16°C° 0 mm 1 m/S 741 mmHg 78%
    04:00 +16°C° 0 mm 1 m/S 741 mmHg 78%
    05:00 +16°C° 0 mm 1 m/S 741 mmHg 76%
    06:00 +18°C° 0 mm 1 m/S 741 mmHg 74%
    07:00 +18°C° 0 mm 1 m/S 741 mmHg 72%
    08:00 +20°C° 0 mm 1 m/S 741 mmHg 66%
    09:00 +22°C° 0 mm 1 m/S 741 mmHg 60%
    10:00 +24°C° 0 mm 1 m/S 742 mmHg 54%
    11:00 +24°C° 0 mm 1 m/S 741 mmHg 53%
    12:00 +25°C° 0 mm 2 m/S 741 mmHg 52%
    13:00 +25°C° 0 mm 2 m/S 741 mmHg 50%
    14:00 +24°C° 0 mm 2 m/S 741 mmHg 55%
    15:00 +24°C° 0 mm 2 m/S 741 mmHg 60%
    16:00 +23°C° 0 mm 1 m/S 741 mmHg 65%
    17:00 +21°C° 0 mm 1 m/S 741 mmHg 71%
    18:00 +20°C° 0 mm 1 m/S 741 mmHg 76%
    19:00 +16°C° 0 mm 0 m/S 741 mmHg 82%
    20:00 +16°C° 0 mm 0 m/S 742 mmHg 81%
    21:00 +18°C° 0 mm 1 m/S 742 mmHg 80%
    22:00 +18°C° 0 mm 1 m/S 743 mmHg 79%
    23:00 +18°C° 0 mm 1 m/S 742 mmHg 79%

    übermorgen, 20 Oktober, Sonntag

    Zeit Temperatur Niederschläge Wind Luftdruck Luftfeuchtigkeit
    00:00 +16°C° 0 mm 1 m/S 742 mmHg 78%
    01:00 +16°C° 0 mm 1 m/S 742 mmHg 77%
    02:00 +16°C° 0 mm 1 m/S 742 mmHg 74%
    03:00 +16°C° 0 mm 1 m/S 742 mmHg 72%
    04:00 +16°C° 0 mm 1 m/S 742 mmHg 69%
    05:00 +16°C° 0 mm 1 m/S 743 mmHg 67%
    06:00 +16°C° 0 mm 1 m/S 743 mmHg 65%
    07:00 +18°C° 0 mm 1 m/S 743 mmHg 63%
    08:00 +20°C° 0 mm 1 m/S 743 mmHg 57%
    09:00 +22°C° 0 mm 1 m/S 743 mmHg 51%
    10:00 +24°C° 0 mm 1 m/S 743 mmHg 45%
    11:00 +25°C° 0 mm 1 m/S 743 mmHg 43%
    12:00 +25°C° 0 mm 1 m/S 743 mmHg 41%
    13:00 +26°C° 0 mm 2 m/S 743 mmHg 39%
    14:00 +25°C° 0 mm 2 m/S 742 mmHg 45%
    15:00 +24°C° 0 mm 1 m/S 742 mmHg 50%
    16:00 +23°C° 0 mm 1 m/S 742 mmHg 55%
    17:00 +22°C° 0 mm 1 m/S 743 mmHg 59%
    18:00 +20°C° 0 mm 1 m/S 743 mmHg 62%
    19:00 +17°C° 0 mm 0 m/S 743 mmHg 66%
    20:00 +19°C° 0 mm 1 m/S 743 mmHg 63%
    21:00 +18°C° 0 mm 1 m/S 743 mmHg 61%
    22:00 +18°C° 0 mm 1 m/S 744 mmHg 58%
    23:00 +18°C° 0 mm 1 m/S 744 mmHg 57%

    21 Oktober, Montag

    Zeit Temperatur Niederschläge Wind Luftdruck Luftfeuchtigkeit
    00:00 +18°C° 0 mm 1 m/S 743 mmHg 56%
    01:00 +18°C° 0 mm 1 m/S 743 mmHg 54%
    02:00 +16°C° 0 mm 1 m/S 743 mmHg 53%
    03:00 +16°C° 0 mm 1 m/S 743 mmHg 52%
    04:00 +16°C° 0 mm 1 m/S 743 mmHg 52%
    05:00 +18°C° 0 mm 1 m/S 743 mmHg 51%
    06:00 +18°C° 0 mm 1 m/S 743 mmHg 50%
    07:00 +18°C° 0 mm 1 m/S 743 mmHg 49%
    08:00 +21°C° 0 mm 1 m/S 744 mmHg 43%
    09:00 +23°C° 0 mm 1 m/S 744 mmHg 38%
    10:00 +25°C° 0 mm 1 m/S 744 mmHg 32%
    11:00 +26°C° 0 mm 1 m/S 744 mmHg 31%
    12:00 +27°C° 0 mm 1 m/S 743 mmHg 29%
    13:00 +27°C° 0 mm 1 m/S 743 mmHg 28%
    14:00 +26°C° 0 mm 1 m/S 743 mmHg 33%
    15:00 +25°C° 0 mm 1 m/S 743 mmHg 39%
    16:00 +24°C° 0 mm 1 m/S 742 mmHg 44%
    17:00 +23°C° 0 mm 1 m/S 743 mmHg 45%
    18:00 +21°C° 0 mm 1 m/S 743 mmHg 47%
    19:00 +20°C° 0 mm 1 m/S 743 mmHg 48%
    20:00 +20°C° 0 mm 1 m/S 743 mmHg 47%
    21:00 +20°C° 0 mm 1 m/S 743 mmHg 47%
    22:00 +19°C° 0 mm 1 m/S 743 mmHg 46%
    23:00 +19°C° 0 mm 1 m/S 743 mmHg 47%

    22 Oktober, Dienstag

    Zeit Temperatur Niederschläge Wind Luftdruck Luftfeuchtigkeit
    00:00 +19°C° 0 mm 1 m/S 743 mmHg 47%
    01:00 +19°C° 0 mm 1 m/S 743 mmHg 48%
    02:00 +19°C° 0 mm 1 m/S 743 mmHg 48%
    03:00 +18°C° 0 mm 1 m/S 743 mmHg 49%
    04:00 +17°C° 0 mm 2 m/S 743 mmHg 49%
    05:00 +17°C° 0 mm 2 m/S 743 mmHg 49%
    06:00 +18°C° 0 mm 2 m/S 743 mmHg 48%
    07:00 +18°C° 0 mm 2 m/S 743 mmHg 48%
    08:00 +20°C° 0 mm 2 m/S 743 mmHg 44%
    09:00 +24°C° 0 mm 1 m/S 743 mmHg 39%
    10:00 +26°C° 0 mm 1 m/S 743 mmHg 35%
    11:00 +27°C° 0 mm 1 m/S 743 mmHg 34%
    12:00 +28°C° 0 mm 1 m/S 743 mmHg 32%
    13:00 +29°C° 0 mm 1 m/S 742 mmHg 31%
    14:00 +28°C° 0 mm 1 m/S 742 mmHg 35%
    15:00 +26°C° 0 mm 1 m/S 742 mmHg 40%
    16:00 +25°C° 0 mm 1 m/S 742 mmHg 44%
    17:00 +24°C° 0 mm 1 m/S 742 mmHg 45%
    18:00 +23°C° 0 mm 2 m/S 742 mmHg 46%
    19:00 +20°C° 0 mm 2 m/S 742 mmHg 46%
    20:00 +20°C° 0 mm 2 m/S 743 mmHg 46%
    21:00 +20°C° 0 mm 2 m/S 743 mmHg 46%
    22:00 +19°C° 0 mm 2 m/S 743 mmHg 45%
    23:00 +19°C° 0 mm 2 m/S 743 mmHg 47%

    23 Oktober, Mittwoch

    Zeit Temperatur Niederschläge Wind Luftdruck Luftfeuchtigkeit
    00:00 +19°C° 0 mm 2 m/S 743 mmHg 48%
    01:00 +18°C° 0 mm 2 m/S 743 mmHg 50%
    02:00 +18°C° 0 mm 2 m/S 743 mmHg 50%
    03:00 +18°C° 0 mm 2 m/S 743 mmHg 51%
    04:00 +18°C° 0 mm 2 m/S 743 mmHg 52%
    05:00 +18°C° 0 mm 2 m/S 743 mmHg 52%
    06:00 +18°C° 0 mm 2 m/S 743 mmHg 52%
    07:00 +18°C° 0 mm 2 m/S 743 mmHg 52%
    08:00 +20°C° 0 mm 2 m/S 743 mmHg 47%
    09:00 +24°C° 0 mm 2 m/S 743 mmHg 42%
    10:00 +26°C° 0 mm 1 m/S 743 mmHg 37%
    11:00 +27°C° 0 mm 1 m/S 742 mmHg 35%
    12:00 +28°C° 0 mm 1 m/S 742 mmHg 33%
    13:00 +28°C° 0 mm 1 m/S 742 mmHg 31%
    14:00 +27°C° 0 mm 1 m/S 742 mmHg 35%
    15:00 +26°C° 0 mm 1 m/S 741 mmHg 40%
    16:00 +25°C° 0 mm 1 m/S 741 mmHg 44%
    17:00 +24°C° 0 mm 1 m/S 741 mmHg 46%
    18:00 +22°C° 0 mm 1 m/S 742 mmHg 48%
    19:00 +20°C° 0 mm 2 m/S 742 mmHg 49%
    20:00 +20°C° 0 mm 2 m/S 742 mmHg 48%
    21:00 +20°C° 0 mm 2 m/S 742 mmHg 47%
    22:00 +19°C° 0 mm 2 m/S 742 mmHg 46%
    23:00 +19°C° 0 mm 2 m/S 742 mmHg 46%
    Mehr zeigen